User: anonymous   Login
Location: Mactaquac Provincial Park
(45.9573°N, 66.8897°W)
Time: 16:44:20
(UTC-04:00)
Language:

Cosmos 1766 - Orbit

View from above orbital plane
View from above orbital plane
View from above satellite
View from above satellite

Ground track
Ground track

The orbit data is extracted from the following two-line orbital elements,

1 16881U 86055A   14323.20299892  .00007549  00000-0  50750-3 0   178
2 16881 082.5128 222.4220 0014002 052.1110 308.1381 15.06548013539535
Epoch (UTC): 19 November 2014 04:52:19
Eccentricity: 0.0014002
inclination: 82.5128°
perigee height: 537 km
apogee height: 556 km
right ascension of ascending node: 222.4220°
argument of perigee: 52.1110°
revolutions per day: 15.06548013
mean anomaly at epoch: 308.1381°
orbit number at epoch: 53953

The dashed part of the orbit path shows where the satellite is in the earth's shadow,  

DLR